Location: La Chapelle
(48.3135°N, 1.3085°W)
Time: 03:44:44
(UTC+00:00)

Cosmos 2084 Rocket - Pass Details

Date: 03 March 2021
Orbit: 527 x 653 km, 62.8° (Epoch: 16 April)

Event Time Altitude Azimuth Distance (km) Brightness Sun altitude
Rises 18:22:21 0° 319° (NW) 2,791 7.5 -5.7°
Reaches altitude 10° 18:24:34 10° 323° (NW) 1,910 6.6 -6.1°
Maximum altitude 18:28:51 63° 44° (NE) 673 3.6 -6.8°
Drops below altitude 10° 18:33:18 10° 127° (SE) 1,978 5.7 -7.6°
Enters shadow 18:35:01 - 129° (SE) 2,654 6.3 -7.8°
